[[{"header":{"parameterUnit":"m.s-1","parameterCategory":1,"la1":30.2991,"la2":30.254,"lo1":-89.0895,"lo2":-89.0444,"dx":0.0017,"dy":0.0017,"nx":28,"ny":28,"refTime":"2022-12-07T03:00:00:Z","depth":0,"parameterNumber":2,"parameterNumberName":"U-component_of_WINDS"},"data":[0,0,0,0,0,0,0,0,0,0,0,0,0,0,0,0,0,0,0,0,0,0,0,0,0,0,0,0,0,0,0,0,0,0,0,0,0,0,0,0,0,0,0,0,0,0,0,0,0,0,0,0,0,0,0,0,0,0,-1.3046,-1.3045,0,-1.3006,-1.3005,-1.3005,-1.2926,-1.2924,-1.2923,-1.2921,-1.2882,-1.2883,-1.2883,0,0,0,0,0,0,0,0,0,0,0,0,0,-1.3055,-1.3055,-1.3046,-1.3045,-1.3045,-1.3006,-1.3005,-1.3005,-1.2926,-1.2924,-1.2922,-1.2921,-1.2882,-1.2883,-1.2883,0,0,0,0,0,0,0,0,0,0,0,0,0,-1.3037,-1.3056,-1.3046,-1.3001,-1.2996,-1.3006,-1.3005,-1.3005,-1.2927,-1.2924,-1.2922,-1.292,-1.2882,-1.2883,-1.2883,-1.2934,0,0,-1.2885,-1.2885,0,0,0,0,0,0,0,0,-1.3038,-1.3037,-1.3008,-1.3004,-1.2999,-1.2968,-1.2994,-1.2981,-1.2927,-1.2953,-1.2921,-1.2918,-1.2913,-1.2911,-1.2909,-1.2932,-1.2931,-1.2885,-1.2886,-1.2886,-1.2886,0,0,0,0,0,0,0,-1.3039,-1.3038,-1.303,-1.3007,-1.3002,-1.2983,-1.2978,-1.2992,-1.2947,-1.2951,-1.2945,-1.2941,-1.291,-1.2908,-1.2907,-1.293,-1.2885,-1.2886,-1.2886,-1.2886,-1.2995,-1.2998,0,0,0,0,0,0,-1.3047,-1.304,-1.3031,-1.3029,-1.3013,-1.2985,-1.2979,-1.2981,-1.2946,-1.2939,-1.2943,-1.2938,-1.2908,-1.2906,-1.2905,-1.2964,-1.2886,-1.2886,-1.2887,-1.2993,-1.2996,-1.2999,0,0,0,0,0,0,-1.3048,-1.3047,-1.3033,-1.3033,-1.3029,-1.2987,-1.299,-1.2981,-1.2979,-1.2941,-1.2932,-1.2949,-1.2906,-1.2905,-1.2928,-1.2961,-1.2887,-1.2887,-1.299,-1.2994,-1.2997,-1.3081,0,0,0,0,0,0,-1.3048,-1.3048,-1.3066,-1.3034,-1.303,-1.3056,-1.2992,-1.2982,-1.298,-1.2973,-1.2944,-1.2937,-1.2904,-1.2927,-1.2929,-1.2961,-1.2888,-1.2987,-1.2992,-1.2996,-1.3075,-1.3087,-1.3098,0,0,0,0,0,-1.3049,-1.3091,-1.3067,-1.3067,-1.3052,-1.3058,-1.3055,-1.3016,-1.2983,-1.3002,-1.2977,-1.2938,-1.2958,-1.293,-1.2931,-1.2964,-1.2984,-1.299,-1.2996,-1.307,-1.3085,-1.3097,0,0,0,0,0,0,-1.3129,-1.3086,-1.3059,-1.3092,-1.3079,-1.3044,-1.3066,-1.3033,-1.3029,-1.3022,-1.2974,-1.2968,-1.2998,-1.2983,-1.2954,-1.3013,-1.2965,-1.2971,-1.3021,-1.3035,-1.3046,-1.3049,-1.2888,0,0,0,0,0,-1.3151,-1.3159,-1.3121,-1.3154,-1.3148,-1.3109,-1.311,-1.3081,-1.3065,-1.306,-1.3037,-1.3024,-1.3027,-1.303,-1.303,-1.3072,-1.3066,-1.3096,-1.3107,-1.3116,-1.3122,-1.3145,-1.3158,-1.3017,-1.3017,-1.3017,0,0,-1.3196,-1.3173,-1.3181,-1.3169,-1.3156,-1.3166,-1.3105,-1.3117,-1.3125,-1.3061,-1.3082,-1.3065,-1.3048,-1.3081,-1.3094,-1.307,-1.316,-1.3124,-1.3131,-1.3132,-1.3152,-1.3165,-1.3177,-1.3021,-1.302,-1.302,0,0,-1.3282,-1.3266,-1.3292,-1.3279,-1.3259,-1.3233,-1.3239,-1.321,-1.3196,-1.3216,-1.3169,-1.3177,-1.3183,-1.3173,-1.3169,-1.3253,-1.3217,-1.3255,-1.3313,-1.3336,-1.3347,-1.3357,-1.3388,-1.3399,-1.3261,-1.3261,-1.3261,0,-1.3341,-1.3353,-1.3309,-1.3326,-1.3322,-1.3265,-1.3292,-1.3282,-1.3264,-1.3264,-1.3236,-1.3243,-1.3227,-1.3258,-1.3279,-1.3277,-1.3284,-1.3258,-1.3349,-1.3358,-1.3366,-1.3395,-1.3407,-1.3265,-1.3265,-1.3264,-1.3264,0,-1.3426,-1.3436,-1.3459,-1.3443,-1.3442,-1.3464,-1.3424,-1.3429,-1.34,-1.3377,-1.3399,-1.3378,-1.3374,-1.3379,-1.3351,-1.3407,-1.3392,-1.3357,-1.3308,-1.3385,-1.3412,-1.3422,-1.3272,-1.3271,-1.3269,-1.3268,0,0,-1.3562,-1.3522,-1.3531,-1.3524,-1.3498,-1.3505,-1.3524,-1.352,-1.3526,-1.3515,-1.3531,-1.3538,-1.3506,-1.3501,-1.3472,-1.3491,-1.3561,-1.3454,-1.3453,-1.3476,-1.3622,-1.3649,-1.3662,-1.3537,-1.3539,-1.3541,-1.3624,0,-1.3644,-1.3674,-1.3636,-1.3675,-1.3684,-1.363,-1.3647,-1.3634,-1.3613,-1.3618,-1.3595,-1.3601,-1.3558,-1.3555,-1.3572,-1.3549,-1.359,-1.3542,-1.3552,-1.3553,-1.3559,-1.3676,-1.3704,-1.3783,-1.3634,-1.3635,-1.3637,0,-1.3743,-1.3737,-1.3777,-1.3749,-1.3752,-1.3768,-1.3761,-1.3767,-1.3751,-1.3734,-1.373,-1.3695,-1.3713,-1.3665,-1.369,-1.3659,-1.3661,-1.365,-1.3652,-1.3652,-1.36,-1.368,-1.3808,-1.382,-1.3652,-1.3651,-1.365,0,-1.3839,-1.3841,-1.3866,-1.3861,-1.3829,-1.3842,-1.383,-1.3811,-1.3812,-1.3806,-1.3806,-1.3804,-1.3802,-1.3801,-1.3767,-1.3735,-1.3797,-1.3746,-1.3785,-1.3786,-1.38,-1.38,-1.3931,-1.3801,-1.38,-1.38,-1.38,0,-1.3934,-1.3961,-1.3909,-1.3924,-1.3953,-1.3909,-1.3939,-1.3921,-1.3906,-1.3917,-1.3871,-1.3883,-1.3836,-1.3843,-1.3816,-1.3842,-1.3842,-1.383,-1.3822,-1.3834,-1.3836,-1.3835,-1.3829,-1.3803,-1.3803,-1.3802,-1.3801,0,-1.4047,-1.4013,-1.4036,-1.4005,-1.3997,-1.402,-1.3993,-1.4007,-1.3983,-1.3998,-1.3999,-1.3963,-1.3969,-1.3934,-1.3934,-1.3916,-1.3955,-1.3938,-1.3961,-1.3956,-1.3997,-1.3994,-1.4132,-1.4149,-1.4008,-1.4009,-1.401,0,-1.4111,-1.413,-1.4101,-1.4105,-1.4095,-1.4102,-1.4102,-1.406,-1.4062,-1.4047,-1.4062,-1.4065,-1.4064,-1.4077,-1.4051,-1.4051,-1.4034,-1.4083,-1.4034,-1.4046,-1.4036,-1.4036,-1.4038,-1.4093,-1.4095,-1.4096,-1.4098,0,-1.4227,-1.4209,-1.4211,-1.4207,-1.4208,-1.4204,-1.4196,-1.4202,-1.4157,-1.4162,-1.4168,-1.4167,-1.4168,-1.4171,-1.4166,-1.4154,-1.4119,-1.4113,-1.4122,-1.4135,-1.4147,-1.4142,-1.3989,-1.411,-1.4109,-1.4108,-1.4107,-1.4107,-1.4317,-1.4332,-1.4314,-1.4318,-1.4308,-1.4302,-1.4313,-1.4291,-1.4294,-1.4291,-1.4266,-1.4277,-1.4262,-1.4252,-1.4244,-1.4252,-1.4229,-1.4242,-1.4245,-1.4249,-1.4257,-1.4146,-1.4251,-1.425,-1.425,-1.425,-1.4249,0,-1.4432,-1.4418,-1.4422,-1.4412,-1.4416,-1.4381,-1.4371,-1.4377,-1.4386,-1.4375,-1.4376,-1.4383,-1.4387,-1.4361,-1.4361,-1.4373,-1.4357,-1.4375,-1.4374,-1.4372,-1.4277,-1.427,-1.4388,-1.4388,-1.4388,-1.4388,-1.4388,-1.4388,-1.4492,-1.4516,-1.4497,-1.4516,-1.4501,-1.4511,-1.4508,-1.4503,-1.4494,-1.4504,-1.4506,-1.4489,-1.4473,-1.4472,-1.4474,-1.4466,-1.4469,-1.4492,-1.448,-1.4392,-1.4378,-1.4365,-1.4358,-1.4493,-1.4493,-1.4574,-1.4574,-1.4575]},{"header":{"parameterUnit":"m.s-1","parameterCategory":1,"la1":30.2991,"la2":30.254,"lo1":-89.0895,"lo2":-89.0444,"dx":0.0017,"dy":0.0017,"nx":28,"ny":28,"refTime":"2022-12-07T03:00:00:Z","depth":0,"parameterNumber":3,"parameterNumberName":"V-component_of_WINDS"},"data":[0,0,0,0,0,0,0,0,0,0,0,0,0,0,0,0,0,0,0,0,0,0,0,0,0,0,0,0,0,0,0,0,0,0,0,0,0,0,0,0,0,0,0,0,0,0,0,0,0,0,0,0,0,0,0,0,0,0,0.1769,0.1768,0,0.1758,0.1758,0.1758,0.1788,0.1789,0.179,0.179,0.1779,0.1778,0.1777,0,0,0,0,0,0,0,0,0,0,0,0,0,0.1815,0.1814,0.1769,0.1768,0.1768,0.1758,0.1758,0.1758,0.1788,0.1789,0.179,0.1791,0.1779,0.1778,0.1777,0,0,0,0,0,0,0,0,0,0,0,0,0,0.1798,0.1813,0.1769,0.1782,0.1783,0.1758,0.1758,0.1758,0.1787,0.1789,0.179,0.1791,0.178,0.1778,0.1776,0.1738,0,0,0.1771,0.177,0,0,0,0,0,0,0,0,0.1799,0.1797,0.178,0.1781,0.1782,0.1776,0.177,0.1751,0.1787,0.1786,0.179,0.1792,0.1777,0.1775,0.177,0.1737,0.1737,0.1771,0.177,0.1769,0.1769,0,0,0,0,0,0,0,0.18,0.1797,0.1764,0.178,0.1781,0.1789,0.1788,0.1767,0.1773,0.1786,0.1788,0.1786,0.1778,0.1772,0.177,0.1737,0.1771,0.1769,0.1768,0.1768,0.1672,0.167,0,0,0,0,0,0,0.18,0.1798,0.1765,0.1764,0.1794,0.1787,0.1786,0.1776,0.1774,0.1775,0.1785,0.1788,0.1774,0.1772,0.177,0.1724,0.1769,0.1767,0.1766,0.1673,0.1671,0.167,0,0,0,0,0,0,0.1801,0.1797,0.1765,0.1782,0.1778,0.1784,0.1773,0.1775,0.177,0.1773,0.1775,0.1778,0.1775,0.1772,0.1746,0.1724,0.1767,0.1765,0.1675,0.1673,0.1671,0.1633,0,0,0,0,0,0,0.1802,0.1797,0.1782,0.1781,0.1777,0.1741,0.1772,0.1774,0.1767,0.177,0.1767,0.1768,0.1776,0.1748,0.1744,0.1723,0.1764,0.1677,0.1674,0.1671,0.1636,0.163,0.1624,0,0,0,0,0,0.1803,0.1771,0.1781,0.1777,0.1759,0.174,0.1737,0.1748,0.1765,0.175,0.1753,0.1768,0.1728,0.1745,0.1741,0.1719,0.1678,0.1675,0.1672,0.1639,0.1631,0.1624,0,0,0,0,0,0,0.1769,0.1772,0.1782,0.1749,0.1744,0.1745,0.1726,0.1739,0.1729,0.1732,0.1745,0.1744,0.1715,0.1715,0.1734,0.1681,0.1706,0.1702,0.1682,0.1675,0.1669,0.1669,0.1762,0,0,0,0,0,0.1758,0.1742,0.1745,0.1716,0.1713,0.172,0.1712,0.172,0.1715,0.1713,0.1714,0.1708,0.1695,0.1685,0.1673,0.1637,0.1636,0.1619,0.1613,0.1609,0.1604,0.1585,0.1577,0.1659,0.1659,0.1659,0,0,0.1734,0.1734,0.1723,0.1709,0.1706,0.1689,0.1718,0.1699,0.1686,0.171,0.1685,0.1685,0.168,0.1649,0.1635,0.1647,0.1582,0.1604,0.16,0.1599,0.1581,0.1573,0.1566,0.1656,0.1657,0.1657,0,0,0.1682,0.168,0.1655,0.1652,0.1647,0.1653,0.1647,0.1646,0.1647,0.1622,0.164,0.1625,0.1601,0.1597,0.1591,0.1539,0.1553,0.1535,0.1503,0.1484,0.1478,0.1472,0.1453,0.1446,0.1531,0.153,0.153,0,0.1653,0.1628,0.1641,0.1621,0.1614,0.1636,0.1611,0.1607,0.1598,0.1593,0.1607,0.1578,0.1576,0.1544,0.1531,0.1526,0.152,0.1534,0.1478,0.1472,0.1467,0.1449,0.1442,0.1528,0.1529,0.1529,0.1529,0,0.1593,0.1575,0.1556,0.1547,0.1539,0.1516,0.1525,0.1515,0.1525,0.1529,0.1503,0.1502,0.1489,0.1483,0.1492,0.1452,0.146,0.1476,0.15,0.1457,0.144,0.1433,0.1525,0.1526,0.1527,0.1527,0,0,0.1517,0.1517,0.1509,0.1506,0.1503,0.1489,0.1468,0.1457,0.1447,0.1441,0.1423,0.1403,0.1418,0.1412,0.1421,0.1405,0.1363,0.1423,0.1423,0.1411,0.1318,0.1305,0.1297,0.1372,0.1371,0.137,0.1318,0,0.1465,0.1428,0.144,0.1403,0.1387,0.1408,0.139,0.1386,0.1389,0.1376,0.138,0.1365,0.1387,0.1383,0.1368,0.1371,0.1344,0.1375,0.1355,0.1355,0.1355,0.1288,0.1274,0.1225,0.1312,0.1311,0.131,0,0.1399,0.1391,0.1352,0.1352,0.1346,0.1329,0.1319,0.1307,0.1303,0.1307,0.1301,0.1313,0.1293,0.1319,0.129,0.1311,0.1304,0.1304,0.1303,0.13,0.1329,0.1283,0.121,0.1202,0.13,0.13,0.1301,0,0.1347,0.1326,0.13,0.1297,0.1296,0.1284,0.1283,0.1281,0.1273,0.1265,0.126,0.125,0.1244,0.1235,0.1245,0.1263,0.1215,0.1242,0.1217,0.1216,0.1204,0.1205,0.1128,0.1202,0.1202,0.1202,0.1202,0,0.1287,0.1262,0.1277,0.1261,0.1234,0.1248,0.1221,0.1223,0.1221,0.1205,0.1223,0.1209,0.1223,0.1209,0.1217,0.1192,0.1189,0.1191,0.1193,0.1189,0.1189,0.1184,0.1187,0.12,0.12,0.1201,0.1201,0,0.1224,0.1232,0.1205,0.1208,0.1208,0.1188,0.119,0.1175,0.118,0.1161,0.1157,0.1165,0.115,0.1159,0.1144,0.115,0.1117,0.1124,0.1118,0.1119,0.1093,0.1095,0.101,0.0999,0.1081,0.108,0.1079,0,0.1184,0.1166,0.1166,0.1157,0.1156,0.1141,0.1134,0.1147,0.1138,0.1133,0.1119,0.1106,0.1096,0.1072,0.1076,0.1065,0.1071,0.1042,0.107,0.1066,0.107,0.107,0.1068,0.1036,0.1035,0.1035,0.1034,0,0.1113,0.1118,0.1107,0.1097,0.1088,0.108,0.1075,0.1066,0.108,0.1069,0.1055,0.1047,0.1032,0.1019,0.101,0.1009,0.1023,0.1026,0.1019,0.1014,0.101,0.1011,0.1101,0.1027,0.1028,0.1028,0.1029,0.1029,0.106,0.1044,0.1042,0.1029,0.1026,0.1021,0.1007,0.1011,0.0999,0.0988,0.0997,0.0979,0.0977,0.0966,0.0963,0.095,0.0962,0.0952,0.095,0.0947,0.0943,0.1014,0.0948,0.0949,0.0949,0.0949,0.0949,0,0.0989,0.0989,0.0976,0.0968,0.0958,0.0973,0.0968,0.0958,0.0942,0.0939,0.0929,0.0912,0.09,0.0904,0.0893,0.0881,0.0887,0.0878,0.0878,0.0877,0.0934,0.094,0.0873,0.0873,0.0873,0.0873,0.0873,0.0873,0.095,0.0925,0.093,0.0904,0.0905,0.0888,0.0883,0.0878,0.0876,0.0856,0.0846,0.0849,0.0848,0.0837,0.0827,0.0828,0.0823,0.081,0.0814,0.0866,0.0873,0.0881,0.0887,0.0809,0.0809,0.0759,0.0758,0.0758]}]]